Flag for Germany Weather past 2 weeks in Bad Kreuznach, Rhineland-Palatinate, Germany

Now
63 °F

Mostly cloudy.


Feels Like: 63 °F
Forecast: 44 / 58 °F
Wind: 6 mph from Northeast

Location: Wiesbaden Airport

Current Time: Apr 26, 2015 at 9:32:05 PM

Latest Report: Apr 26, 2015 at 9:00 PM


Visibility: N/A

Pressure: 29.64 "Hg

Humidity: 73%

Dew point: 54 °F

Location of Bad KreuznachLocation

Historic Weather in Bad Kreuznach — Graph

°F

Bad Kreuznach temperature yesterday

Maximum temperature yesterday: 61 °F (at 3:58 PM)
Minimum temperature yesterday: 45 °F (at 2:58 AM)
Average temperature yesterday: 54 °F

Past Weeks' High & Low Weather Summary

 TemperatureHumidityPressure
High76 °F (Apr 15, 3:58 PM)100% (Apr 26, 1:58 AM)30.84 "Hg (Apr 26, 1:58 AM)
Low37 °F (Apr 14, 4:58 AM)23% (Apr 21, 2:58 PM)29.65 "Hg (Apr 26, 6:58 PM)
Average55 °F59%30.15 "Hg
* Reported Apr 11 7:58 PM — Apr 26 7:58 PM, Bad Kreuznach, Weather by CustomWeather, © 2015

Note: Actual official high and low records may vary slightly from our data, if they occured in-between our weather recording intervals... More about our weather records

Advertising

Bad Kreuznach weather history for previous 24 hours

 ConditionsComfort  
Time TempWeatherWind HumidityBarometerVisibility
7:58 PM
Sun, Apr 26
65 °FPartly sunny.5 mph65%29.65 "HgN/A
6:58 PM68 °FSunny.No wind49%29.65 "HgN/A
5:58 PM68 °FSunny.3 mph53%29.66 "HgN/A
4:58 PM68 °FPassing clouds.7 mph54%29.68 "HgN/A
3:58 PM68 °FSunny.8 mph49%29.70 "HgN/A
3:01 PM66 °FBroken clouds.10 mph56%29.73 "HgN/A
1:58 PM67 °FPartly sunny.13 mph59%29.73 "HgN/A
12:58 PM65 °FScattered clouds.9 mph67%29.75 "HgN/A
11:58 AM63 °FOvercast.7 mph70%29.78 "HgN/A
10:58 AM63 °FPartly sunny.9 mph73%29.79 "HgN/A
9:59 AM59 °FMostly cloudy.8 mph82%29.79 "HgN/A
8:58 AM56 °FMostly cloudy.6 mph100%29.80 "HgN/A
7:58 AM54 °FMore clouds than sun.2 mph100%29.81 "HgN/A
6:58 AM54 °FFog.2 mph100%29.80 "Hg6 mi
5:58 AM52 °FOvercast.2 mph100%29.80 "HgN/A
4:58 AM52 °FOvercast.No wind100%29.80 "HgN/A
4:03 AM52 °FMostly cloudy.2 mph100%29.81 "HgN/A
2:58 AM50 °FOvercast.2 mph100%29.83 "HgN/A
1:58 AM50 °FPassing clouds.3 mph100%29.83 "HgN/A
12:58 AM52 °FPassing clouds.No wind99%29.85 "HgN/A
11:58 PM
Sat, Apr 25
51 °FPassing clouds.No wind94%29.84 "HgN/A
10:58 PM54 °FPassing clouds.6 mph88%29.84 "HgN/A
9:58 PM57 °FPassing clouds.5 mph77%29.83 "HgN/A
Weather by CustomWeather, © 2015

See weather overviewHow to use our weather pages